Stratford, CT

5:49 AM EST on January 24, 2017 (GMT -0500)
Sikorsky Memorial

Weather History for KBDR - August, 2013

Change the Weather History Date:

Monday, August 19, 2013

  Actual Average Record
Temperature  
Mean Temperature 72 °F 73 °F  
Max Temperature 78 °F 81 °F 90 °F (1956)
Min Temperature 65 °F 66 °F 53 °F (1953)
Degree Days  
Heating Degree Days 0 0  
Month to date heating degree days 0 0  
Since 1 June heating degree days 18 33  
Since 1 July heating degree days 0 1  
Cooling Degree Days 7 8  
Month to date cooling degree days 131 174  
Year to date cooling degree days 769 630  
Since 1 June cooling degree days 731 606  
Growing Degree Days 21 (Base 50)    
Moisture  
Dew Point 62 °F    
Average Humidity 73    
Maximum Humidity 87    
Minimum Humidity 59    
Precipitation  
Precipitation T in 0.14 in 4.66 in (1991)
Month to date precipitation 0.84 2.52  
Year to date precipitation 25.51 27.46  
Snow  
Snow 0.00 in 0.00 in 0.00 in (2002)
Month to date snowfall 0.0 0.0  
Since 1 July snowfall 0.0 0.0  
Snow Depth 0.00 in    
Sea Level Pressure  
Sea Level Pressure 30.06 in    
Wind  
Wind Speed 6 mph (WSW)    
Max Wind Speed 14 mph    
Max Gust Speed 17 mph    
Visibility 10 miles    
Events Rain    
T = Trace of Precipitation, MM = Missing Value Source: NWS Daily Summary

Daily Weather History Graph

Daily Weather History Graph

Search for Another Location

Airport or City:

Trip Planner

Search our weather history database for the weather conditions in past years. The results will help you decide how hot, cold, wet, or windy it might be!

Date:

Astronomy

Aug. 19, 2013 Rise Set
Actual Time 6:06 AM EDT 7:45 PM EDT
Civil Twilight 5:36 AM EDT 8:14 PM EDT
Nautical Twilight 5:01 AM EDT 8:49 PM EDT
Astronomical Twilight 4:23 AM EDT 9:27 PM EDT
Moon 6:34 PM EDT (8/19) 4:21 AM EDT (8/19)
Length of Visible Light 14h 37m
Length of Day
13h 38m
Waxing Gibbous, 97% of the Moon is Illuminated
Aug 19
Waxing Gibbous
Aug 20
Full
Aug 28
Last Quarter
Sep 5
New
Sep 12
First Quarter

Hourly Weather History & Observations

Time (EDT) Temp. Dew Point Humidity Pressure Visibility Wind Dir Wind Speed Gust Speed Precip Events Conditions
12:52 AM 68.0 °F 54.0 °F 61% 30.12 in 10.0 mi SSW 4.6 mph - N/A   Clear
1:52 AM 66.0 °F 57.0 °F 73% 30.12 in 10.0 mi Calm Calm - N/A   Clear
2:52 AM 66.0 °F 57.9 °F 75% 30.10 in 10.0 mi West 3.5 mph - N/A   Clear
3:52 AM 64.9 °F 59.0 °F 81% 30.10 in 10.0 mi West 3.5 mph - N/A   Clear
4:52 AM 66.0 °F 59.0 °F 78% 30.10 in 10.0 mi WSW 8.1 mph - N/A   Clear
5:52 AM 64.9 °F 60.1 °F 84% 30.10 in 10.0 mi WSW 5.8 mph - N/A   Clear
6:52 AM 64.9 °F 60.1 °F 84% 30.10 in 10.0 mi West 4.6 mph - N/A   Clear
7:52 AM 66.9 °F 61.0 °F 81% 30.10 in 10.0 mi WSW 4.6 mph - N/A   Clear
8:52 AM 69.1 °F 61.0 °F 75% 30.09 in 10.0 mi SW 4.6 mph - N/A   Clear
9:52 AM 72.0 °F 63.0 °F 73% 30.08 in 10.0 mi SW 5.8 mph - N/A   Clear
10:52 AM 75.0 °F 63.0 °F 66% 30.07 in 10.0 mi SW 10.4 mph - N/A   Clear
11:52 AM 75.0 °F 64.9 °F 71% 30.06 in 10.0 mi SW 12.7 mph - N/A   Clear
12:52 PM 77.0 °F 64.9 °F 66% 30.05 in 10.0 mi SW 9.2 mph - N/A   Partly Cloudy
1:52 PM 77.0 °F 64.0 °F 64% 30.04 in 10.0 mi SW 11.5 mph - N/A   Partly Cloudy
2:52 PM 77.0 °F 64.9 °F 66% 30.03 in 10.0 mi SW 8.1 mph - N/A   Clear
3:52 PM 77.0 °F 64.9 °F 66% 30.02 in 10.0 mi SW 8.1 mph - N/A   Scattered Clouds
4:52 PM 77.0 °F 64.9 °F 66% 30.02 in 10.0 mi SW 9.2 mph - N/A   Scattered Clouds
5:52 PM 78.1 °F 64.9 °F 64% 30.03 in 10.0 mi West 5.8 mph - 0.00 in Rain Light Rain
6:52 PM 77.0 °F 63.0 °F 62% 30.03 in 10.0 mi West 4.6 mph - 0.00 in Rain Light Rain
7:52 PM 75.9 °F 61.0 °F 60% 30.02 in 10.0 mi West 3.5 mph - 0.00 in   Clear
8:52 PM 73.9 °F 63.0 °F 68% 30.03 in 10.0 mi WSW 3.5 mph - N/A   Clear
9:52 PM 73.0 °F 64.0 °F 73% 30.04 in 10.0 mi WSW 3.5 mph - N/A   Clear
10:52 PM 73.0 °F 64.0 °F 73% 30.05 in 10.0 mi WSW 5.8 mph - N/A   Mostly Cloudy
11:52 PM 72.0 °F 64.0 °F 76% 30.04 in 10.0 mi WSW 4.6 mph - N/A   Partly Cloudy